SCP
0 -0 -0 -0 0 -0 0 -0 -0 -0 -0 -0 -0 -0 -0 -0 -0 0 -0 0 0 0 0 0 0 0 0 0 -0 -0 -0 -0 -0 -0 -0 -0 -0 -0 -0 -0 -0 -0 -0 -0 -0 -0 -0 -0 -0
0 -0 -0 -0 0 0 -0 -0 -0 -0 -0 -0 -0 -0 -0 -0 -0 -0 -0 0 0 0 -0 0 -0 -0 -0 -0 0 -0 -0 -0 -0 -0 -0 -0 -0 -0 -0 0 0 0 0 0 -0 -0 -0 -0 -0
0 0 0 0 0 0 -0 -0 -0 -0 -0 -0 -0 -0 -0 -0 0 -0 -0 0 0 0 0 0 0 -0 -0 -0 0 -0 -0 -0 -0 -0 -0 -0 -0 -0 -0 0 0 0 0 0 0 0 -0 -0 -0
0 0 0 0 0 -0 -0 -0 -0 -0 -0 -0 -0 0 -0 -0 0 0 0 -0 -0 -0 -0 0 0 0 0 0 0 -0 -0 -0 -0 -0 -0 -0 -0 -0 -0 0 0 0 0 0 0 0 0 0 0
0 0 0 0 0 0 0 -0 -0 -0 -0 -0 -0 0 0 -0 0 0 0 0 -0 -0 -0 0 0 0 -0 -0 -0 -0 -0 -0 -0 -0 -0 -0 -0 0 0 0 0 0 0 0 0 0 0 0 0
0 0 0 0 0 0 -0 -0 -0 -0 -0 0 0 0 0 0 -0 -0 0 -0 0 -0 -0 0 0 0 -0 0 -0 -0 -0 -0 -0 0 0 0 0 0 0 0 0 0 0 0 0 0 0 0 0
0 0 -0 0 0 0 0 0 -0 -0 -0 0 0 0 0 -0 0 -0 -0 -0 -0 -0 0 0 0 0 0 0 -0 -0 -0 0 0 0 0 0 0 0 0 0 0 0 0 0 0 0 0 0 0
0 0 0 0 0 0 0 0 -0 0 0 0 -0 0 0 0 0 -0 -0 -0 -0 -0 0 0 -0 -0 0 0 0 0 0 0 -0 -0 0 0 0 0 0 0 0 0 0 0 0 0 0 0 0
0 0 0 0 0 0 0 0 0 0 0 0 0 0 0 -0 -0 -0 -0 -0 -0 -0 0 0 0 0 0 1 1 1 1 0 0 0 0 0 0 0 0 0 0 0 0 0 0 0 0 0 0
0 0 0 -0 -0 0 0 0 0 0 0 0 0 0 -0 -0 -0 -0 0 0 0 0 0 0 0 0 0 0 0 0 0 0 0 0 0 0 0 0 0 0 0 0 0 0 0 0 0 0 0
0 0 -0 -0 -0 -0 0 0 0 0 0 0 -0 -0 -0 -0 -0 -0 0 0 0 0 0 0 0 0 0 0 0 0 0 0 0 0 1 1 1 0 0 0 0 1 0 1 1 1 1 0 0
0 0 0 -0 -0 -0 0 0 0 0 0 0 0 -0 -0 -0 -0 -0 -0 -0 -0 0 0 0 0 0 0 0 0 0 0 0 0 0 0 1 1 1 1 0 0 0 0 1 1 1 0 0 0
0 0 0 0 0 -0 -0 0 -0 0 0 0 -0 0 0 0 0 0 0 0 0 0 0 0 0 0 0 0 0 0 0 0 0 0 0 0 1 1 0 0 0 0 0 1 1 1 1 0 0
0 0 -0 -0 -0 -0 0 0 -0 0 0 0 0 0 0 0 0 0 0 0 0 0 0 0 0 0 0 0 0 0 0 0 0 0 0 0 0 1 1 0 0 0 0 1 1 0 0 0 0
-0 -0 -0 0 0 0 0 0 0 0 0 0 0 0 0 0 0 0 0 0 0 0 0 0 0 0 0 0 0 0 0 0 0 0 0 0 0 0 0 1 0 0 0 0 1 0 0 0 0
0 -0 0 0 0 0 0 0 0 0 -0 0 0 0 0 0 0 0 0 0 0 0 0 0 0 0 0 0 0 0 0 0 0 0 0 0 0 0 0 0 1 1 0 0 0 0 0 0 0
0 0 0 0 0 0 0 0 0 0 0 0 0 0 0 0 0 0 0 0 0 0 0 0 0 0 0 0 -0 0 0 0 0 0 0 0 0 0 0 0 0 0 0 0 0 0 0 0 0
0 0 0 0 0 0 0 0 0 0 0 0 0 0 0 0 0 0 0 0 0 0 0 0 0 0 0 0 0 0 0 0 0 0 0 0 0 0 0 0 0 0 0 0 0 0 0 0 0
0 0 0 0 0 0 0 0 0 0 0 0 0 0 0 0 0 0 0 0 0 0 0 0 0 0 0 0 0 0 0 0 0 0 0 -0 -0 0 0 0 0 0 0 0 0 0 0 0 0
0 0 0 0 0 0 0 -0 0 0 0 0 0 0 0 0 0 0 0 0 0 0 0 0 0 0 0 0 -0 0 0 0 0 0 -0 -0 -0 -0 -0 0 0 0 0 0 0 0 0 0 0
0 0 0 0 0 0 0 0 0 0 0 0 0 0 0 0 0 0 0 0 0 0 0 0 0 0 0 0 0 0 0 0 0 0 -0 0 0 -0 0 0 0 0 0 0 0 0 0 0 0
0 0 0 0 0 0 0 0 0 0 0 0 0 0 0 0 0 0 0 0 0 0 0 0 0 0 0 0 0 0 0 0 0 0 0 0 -0 -0 -0 -0 0 0 0 0 0 0 0 0 0
0 0 0 0 0 0 0 0 0 0 0 0 0 0 0 0 0 -0 -0 -0 -0 0 0 0 0 0 0 0 0 0 0 0 0 0 -0 -0 -0 -0 -0 -0 -0 0 0 0 0 0 0 0 0
0 0 0 0 0 0 0 0 0 0 0 0 0 0 -0 -0 -0 -0 -0 -0 -0 -0 -0 -0 0 0 0 0 0 0 0 0 0 0 0 0 0 0 0 -0 -0 0 0 0 0 0 0 0 0
0 0 0 0 0 0 0 0 0 0 0 0 0 0 -0 -0 -0 -0 -0 0 0 0 0 0 0 0 0 0 0 0 0 0 0 0 0 0 0 0 0 0 0 0 0 0 0 0 0 0 0
0 0 0 0 0 0 0 0 0 0 0 0 0 0 -0 -0 -0 -0 0 0 0 0 0 0 0 0 0 0 0 0 0 0 0 0 0 0 0 0 0 0 0 0 0 0 0 0 0 0 0
0 0 0 0 0 0 0 0 0 0 0 0 -0 0 0 0 0 0 0 0 0 0 0 0 0 0 0 0 0 0 0 0 0 0 0 0 0 0 0 0 0 0 0 0 0 0 0 0 0
0 0 0 0 0 0 0 0 0 0 0 0 0 0 0 0 0 0 0 0 0 0 0 0 0 0 0 0 0 0 0 0 0 0 0 0 0 0 0 0 0 0 0 0 0 0 0 0 0
0 0 0 0 0 0 0 0 0 0 0 0 0 0 0 0 0 0 0 0 0 0 0 0 0 -0 0 0 0 0 0 0 0 0 0 0 0 0 0 0 0 0 0 0 0 0 0 0 0
0 0 0 0 0 0 0 0 0 0 0 0 0 0 0 0 0 0 0 0 0 0 0 0 0 0 0 0 0 0 0 0 0 0 0 0 0 0 0 0 -0 -0 -0 0 0 0 0 0 0
Wind_Speed_500mb
19 19 24 2 7 11 6 11 6 2 6 18 29 7 15 10 1 4 18 16 20 19 17 15 15 14 18 20 19 23 28 28 29 31 33 32 28 25 23 21 19 18 18 19 19 17 18 17 15
18 22 7 3 9 10 6 7 12 11 8 21 20 19 2 6 7 9 20 21 18 19 16 12 10 13 20 24 23 24 28 29 28 29 30 30 26 22 21 20 17 15 14 14 15 13 12 11 10
17 12 2 8 6 8 8 6 9 7 29 10 8 5 5 6 24 15 13 8 19 18 18 14 8 11 21 27 23 22 25 29 30 28 28 26 23 19 17 15 13 12 10 9 9 9 7 7 7
19 4 8 9 8 1 14 13 12 9 22 24 9 9 14 11 33 27 30 16 11 17 14 11 8 11 21 25 24 20 21 24 27 28 27 26 24 20 17 15 13 12 12 9 6 6 6 3 3
13 6 9 7 7 4 7 28 49 12 7 12 13 7 8 18 29 34 46 31 19 16 15 11 11 11 15 22 22 18 17 19 22 25 25 25 23 21 19 17 15 13 12 10 8 8 7 7 5
8 6 10 3 4 2 6 35 26 15 22 32 34 26 8 20 32 35 28 56 21 26 19 17 15 14 15 14 16 14 12 12 16 19 21 23 23 21 20 19 19 17 16 14 13 12 12 11 11
9 8 7 4 5 2 5 16 18 20 19 10 38 12 18 32 54 30 58 48 39 30 24 21 19 18 19 19 15 10 8 9 12 14 17 19 20 20 21 21 22 22 21 20 19 18 18 17 16
4 9 6 6 5 8 3 4 23 45 8 25 25 14 17 44 58 36 41 38 33 15 27 23 20 18 17 16 13 11 10 10 10 13 17 20 21 23 25 25 26 27 27 27 27 25 24 22 20
2 9 3 4 4 7 10 8 4 8 11 3 14 40 30 51 66 47 40 31 42 23 29 28 26 24 17 16 12 6 5 8 12 15 17 20 24 24 26 28 29 31 32 32 32 32 31 29 27
9 7 12 6 12 2 9 13 5 6 8 16 49 40 39 60 68 51 39 40 37 43 40 37 31 28 26 21 14 14 13 12 14 17 19 20 23 25 26 28 30 33 34 37 38 37 35 35 33
7 9 12 4 8 10 8 9 10 21 3 32 57 52 49 56 56 47 46 41 44 41 28 22 28 28 21 16 17 10 8 12 18 21 22 22 23 26 27 28 28 30 34 36 32 29 28 28 34
4 6 9 13 7 1 4 9 10 4 7 36 39 57 60 68 58 54 56 47 42 35 29 23 19 13 8 5 10 18 22 21 17 21 27 28 25 26 31 32 30 29 32 33 29 25 22 26 29
8 4 6 8 5 8 6 8 6 8 20 36 37 44 58 61 65 60 56 58 51 46 41 34 23 17 12 11 17 29 32 27 25 25 24 28 30 29 30 36 35 37 36 35 31 30 30 31 30
7 5 7 3 5 4 6 5 8 14 27 34 39 38 45 61 65 61 60 62 57 48 42 39 36 32 27 16 14 25 31 36 22 23 24 26 29 32 34 35 38 39 43 45 42 38 34 35 35
3 12 16 7 5 4 8 5 8 22 8 17 41 49 45 53 59 66 70 64 55 53 47 44 36 26 7 9 18 15 17 18 19 21 23 21 25 32 33 35 42 44 44 47 50 55 47 44 41
12 12 12 13 22 12 9 12 12 43 35 24 26 57 55 53 55 71 69 67 63 54 50 44 30 17 4 11 10 8 10 15 20 25 29 31 31 28 31 38 38 39 51 50 52 51 46 45 45
15 1 7 17 24 9 12 8 14 37 44 44 43 33 52 51 33 59 72 69 63 58 56 46 26 11 8 14 14 10 11 11 14 18 22 26 29 35 39 35 37 44 42 47 51 54 52 48 46
3 3 5 6 14 16 13 13 16 59 53 44 46 37 36 49 57 49 65 66 65 60 51 37 24 15 6 5 3 11 15 12 13 19 27 30 31 29 30 37 39 37 41 40 44 47 51 53 48
5 6 1 4 1 2 8 7 19 27 49 49 56 56 39 32 33 43 49 50 40 35 28 22 15 10 10 4 4 10 10 16 13 20 28 34 38 39 33 24 23 34 36 29 38 46 46 47 55
8 6 6 7 7 4 8 10 11 22 28 42 50 59 55 41 28 20 38 30 31 27 21 10 4 4 2 5 17 18 18 19 15 25 36 31 31 35 41 39 28 22 28 30 27 34 41 45 31
4 6 5 9 8 5 7 7 7 6 26 40 57 62 63 54 39 26 22 18 19 16 14 12 10 4 4 12 23 29 25 27 29 35 35 32 34 38 39 40 39 33 25 27 28 32 41 48 47
4 7 4 4 7 2 8 8 4 2 11 24 44 56 56 58 47 33 24 4 9 12 18 15 11 6 6 13 20 48 45 45 48 42 41 38 36 42 48 46 41 37 35 33 31 37 37 42 48
6 6 7 2 7 5 10 7 8 8 11 13 25 35 39 41 44 41 32 26 23 14 12 18 14 13 17 19 37 54 71 74 61 58 46 47 44 49 56 52 49 44 36 34 38 36 40 42 48
10 7 12 9 7 6 6 7 8 3 4 6 10 19 22 26 24 19 16 12 14 23 19 18 26 32 41 48 52 60 75 79 71 56 47 43 50 54 53 56 51 48 45 38 36 44 41 43 50
18 13 9 11 10 8 8 4 11 9 5 4 7 17 17 17 20 20 23 20 15 19 25 38 49 52 59 57 64 62 63 77 72 59 51 43 50 54 54 57 53 55 58 53 42 42 51 47 47
8 9 9 6 4 11 13 10 2 6 18 11 11 13 19 19 19 23 22 25 25 26 31 35 38 41 36 46 63 64 70 66 60 52 46 46 50 53 54 53 58 61 67 67 56 47 46 55 51
11 8 4 4 4 4 7 5 8 4 9 20 13 18 26 29 24 30 35 33 32 35 34 38 40 46 47 48 49 54 53 53 55 49 50 50 48 46 48 54 63 70 73 77 62 56 53 51 56
11 5 9 8 6 8 9 10 6 13 20 14 20 21 29 28 29 31 39 46 48 52 52 52 54 58 59 62 62 50 46 48 51 55 53 46 46 50 55 62 68 76 83 83 67 60 57 55 54
10 8 9 5 8 6 8 10 4 2 6 13 20 35 43 45 49 58 62 58 57 54 52 65 79 71 61 62 57 50 47 43 44 46 48 52 58 63 71 76 83 86 91 91 73 61 59 59 57
10 1 7 7 12 7 5 15 7 5 7 18 27 37 43 51 59 65 71 58 49 48 66 87 98 79 73 81 82 76 71 68 71 73 73 75 79 83 88 89 91 93 98 92 71 61 58 59 60
Wind_Direction_500mb
353 348 338 299 60 64 15 42 33 150 187 206 180 117 185 109 150 160 128 117 169 186 175 160 155 170 177 169 153 163 169 172 170 167 166 162 158 153 146 140 136 132 124 117 113 110 107 101 93
347 337 341 38 74 71 345 330 180 239 203 148 138 144 344 62 28 78 147 118 143 174 166 166 173 188 190 177 163 161 168 170 167 169 170 169 168 163 157 152 149 147 137 127 123 123 123 114 100
354 353 42 86 103 110 133 239 184 201 132 112 108 107 88 90 91 78 51 209 167 172 169 162 174 195 187 179 169 163 168 173 173 175 177 181 183 183 178 173 168 165 162 151 144 140 141 130 117
357 31 60 77 125 306 135 179 188 163 225 245 206 85 82 136 138 108 93 132 166 181 169 159 155 175 180 180 173 168 168 176 183 185 188 193 195 198 200 197 196 193 190 186 191 186 187 187 150
9 50 57 60 4 207 119 172 172 186 204 147 162 94 80 139 158 146 122 123 129 195 180 164 168 167 176 181 181 176 171 175 185 197 197 203 205 208 214 217 217 216 215 221 230 241 235 235 243
40 64 52 64 277 276 341 163 169 153 127 111 102 111 158 176 153 154 166 148 151 177 179 180 177 162 156 175 188 195 192 191 195 201 206 213 216 218 224 230 236 234 236 242 248 259 262 250 251
91 75 164 238 343 169 178 132 150 138 147 133 134 101 160 178 159 134 141 169 174 178 179 190 181 160 155 154 168 194 217 237 245 239 236 236 239 240 240 243 250 253 253 256 260 263 269 267 253
22 87 28 346 349 46 99 208 112 142 147 138 155 147 169 189 171 144 170 206 188 164 178 195 183 168 153 145 159 186 201 218 236 258 268 265 262 262 264 263 263 265 267 268 270 269 268 267 265
167 57 20 340 56 289 10 141 108 118 130 89 68 134 140 154 164 159 149 166 193 199 175 183 183 177 171 166 170 190 236 249 240 240 249 260 270 271 272 275 275 274 274 274 274 275 275 274 268
98 95 202 223 164 128 44 84 50 107 127 113 102 121 140 153 169 168 166 166 159 170 175 175 178 189 185 184 184 196 207 255 251 258 264 270 276 277 276 278 279 277 274 272 272 273 275 275 275
144 173 185 200 136 166 136 57 77 132 317 162 133 137 149 152 161 167 160 157 174 175 176 174 191 191 191 208 234 257 295 288 261 254 260 271 277 280 278 277 281 287 288 288 282 284 280 284 281
72 101 156 164 183 282 95 97 82 69 202 166 150 145 149 159 162 164 169 168 175 173 167 164 166 187 218 301 323 304 287 282 289 265 266 265 263 276 279 277 278 277 278 281 279 287 282 288 299
66 349 95 183 178 129 102 54 104 128 161 169 166 154 157 164 167 166 166 168 172 175 172 171 175 188 208 265 288 317 292 280 280 278 277 262 261 268 266 270 271 275 277 276 278 281 284 285 290
305 279 348 153 275 260 126 58 355 144 171 172 179 187 172 174 176 176 178 177 179 185 191 191 198 210 226 249 305 316 285 279 282 280 281 276 273 271 265 261 261 269 275 277 274 271 280 286 282
337 13 359 35 329 201 141 9 252 45 63 232 229 213 207 183 194 201 191 192 194 197 206 205 207 215 207 330 331 302 281 289 301 303 303 300 286 281 283 275 266 260 260 273 275 277 275 282 282
30 50 15 315 357 10 114 250 1 20 7 333 313 224 212 212 210 198 202 200 198 212 222 220 216 189 270 343 355 345 340 335 333 323 319 316 312 309 296 285 281 279 266 264 271 271 269 274 283
10 44 358 333 17 352 55 341 341 4 2 350 339 263 232 227 219 206 198 200 207 211 213 205 198 236 321 18 16 13 7 358 347 335 329 327 323 311 305 307 298 285 285 269 269 270 267 269 273
256 23 342 347 329 16 26 348 319 25 30 12 360 329 289 268 255 234 207 205 205 200 203 210 210 207 160 121 37 343 341 340 331 329 327 328 328 327 318 301 299 298 289 286 275 273 275 270 275
107 91 102 253 304 147 43 295 15 33 32 22 19 15 344 300 283 231 197 188 178 171 179 196 206 171 157 117 12 13 20 357 350 354 337 322 319 317 325 325 307 293 294 288 276 275 275 286 266
72 93 343 297 323 96 8 57 97 25 33 37 31 35 45 57 81 148 178 167 167 179 181 176 136 139 98 352 343 349 349 338 346 343 346 330 318 315 322 321 320 306 289 285 279 268 276 277 263
95 116 230 225 328 3 44 30 36 21 32 39 50 58 53 56 70 88 139 183 208 204 195 205 189 199 335 322 328 357 317 328 310 322 332 335 340 337 327 318 314 309 299 284 273 268 266 274 277
38 328 270 248 73 293 42 265 298 332 4 40 43 54 63 63 54 55 49 3 304 264 237 216 228 241 273 307 327 346 325 316 315 315 322 322 327 339 339 326 319 307 298 291 279 265 258 266 271
258 0 334 16 97 89 348 76 249 2 10 6 39 50 55 58 63 65 52 26 12 346 299 291 280 271 274 300 336 334 321 314 309 307 311 314 320 329 333 328 323 320 306 289 277 274 264 257 259
304 341 39 48 72 46 274 102 290 306 358 348 67 63 60 56 50 45 39 39 4 331 307 291 301 288 297 296 303 301 308 303 293 294 297 303 313 319 322 329 326 326 322 305 282 271 269 268 264
37 46 354 6 10 224 263 335 248 356 47 20 88 54 51 49 45 32 16 4 343 332 313 301 295 280 279 288 292 288 292 283 280 281 287 296 303 308 313 320 325 325 326 318 297 275 267 268 269
14 98 134 295 230 252 316 251 92 78 41 12 38 44 28 14 15 20 12 5 4 355 349 321 311 321 311 294 281 277 272 271 278 266 278 285 290 298 306 313 314 315 323 318 303 285 271 267 265
324 26 222 147 342 39 272 102 275 4 13 15 343 25 16 12 6 3 348 346 348 346 343 341 332 324 318 302 291 289 282 271 267 267 270 273 276 283 292 300 307 308 314 318 304 289 276 269 266
90 270 22 11 353 307 292 290 257 345 355 344 11 25 7 359 351 343 331 324 319 319 321 321 329 327 317 307 303 292 280 267 259 260 264 263 270 280 287 293 297 300 307 311 301 289 277 271 264
4 20 38 113 151 224 297 257 203 275 358 347 352 342 335 333 333 324 321 315 309 307 311 319 320 317 307 300 287 274 269 265 264 266 272 279 282 285 288 292 296 299 301 303 296 284 276 267 263
136 230 116 114 279 238 221 276 154 144 6 342 327 328 320 317 319 316 318 312 310 303 308 311 308 303 291 292 285 281 280 279 280 281 284 286 287 289 291 293 294 295 294 295 287 281 273 264 261
Wind_Speed_850mb
19 19 24 2 7 11 6 11 6 2 6 18 29 7 15 10 1 4 18 16 20 19 17 15 15 14 18 20 19 23 28 28 29 31 33 32 28 25 23 21 19 18 18 19 19 17 18 17 15
18 22 7 3 9 10 6 7 12 11 8 21 20 19 2 6 7 9 20 21 18 19 16 12 10 13 20 24 23 24 28 29 28 29 30 30 26 22 21 20 17 15 14 14 15 13 12 11 10
17 12 2 8 6 8 8 6 9 7 29 10 8 5 5 6 24 15 13 8 19 18 18 14 8 11 21 27 23 22 25 29 30 28 28 26 23 19 17 15 13 12 10 9 9 9 7 7 7
19 4 8 9 8 1 14 13 12 9 22 24 9 9 14 11 33 27 30 16 11 17 14 11 8 11 21 25 24 20 21 24 27 28 27 26 24 20 17 15 13 12 12 9 6 6 6 3 3
13 6 9 7 7 4 7 28 49 12 7 12 13 7 8 18 29 34 46 31 19 16 15 11 11 11 15 22 22 18 17 19 22 25 25 25 23 21 19 17 15 13 12 10 8 8 7 7 5
8 6 10 3 4 2 6 35 26 15 22 32 34 26 8 20 32 35 28 56 21 26 19 17 15 14 15 14 16 14 12 12 16 19 21 23 23 21 20 19 19 17 16 14 13 12 12 11 11
9 8 7 4 5 2 5 16 18 20 19 10 38 12 18 32 54 30 58 48 39 30 24 21 19 18 19 19 15 10 8 9 12 14 17 19 20 20 21 21 22 22 21 20 19 18 18 17 16
4 9 6 6 5 8 3 4 23 45 8 25 25 14 17 44 58 36 41 38 33 15 27 23 20 18 17 16 13 11 10 10 10 13 17 20 21 23 25 25 26 27 27 27 27 25 24 22 20
2 9 3 4 4 7 10 8 4 8 11 3 14 40 30 51 66 47 40 31 42 23 29 28 26 24 17 16 12 6 5 8 12 15 17 20 24 24 26 28 29 31 32 32 32 32 31 29 27
9 7 12 6 12 2 9 13 5 6 8 16 49 40 39 60 68 51 39 40 37 43 40 37 31 28 26 21 14 14 13 12 14 17 19 20 23 25 26 28 30 33 34 37 38 37 35 35 33
7 9 12 4 8 10 8 9 10 21 3 32 57 52 49 56 56 47 46 41 44 41 28 22 28 28 21 16 17 10 8 12 18 21 22 22 23 26 27 28 28 30 34 36 32 29 28 28 34
4 6 9 13 7 1 4 9 10 4 7 36 39 57 60 68 58 54 56 47 42 35 29 23 19 13 8 5 10 18 22 21 17 21 27 28 25 26 31 32 30 29 32 33 29 25 22 26 29
8 4 6 8 5 8 6 8 6 8 20 36 37 44 58 61 65 60 56 58 51 46 41 34 23 17 12 11 17 29 32 27 25 25 24 28 30 29 30 36 35 37 36 35 31 30 30 31 30
7 5 7 3 5 4 6 5 8 14 27 34 39 38 45 61 65 61 60 62 57 48 42 39 36 32 27 16 14 25 31 36 22 23 24 26 29 32 34 35 38 39 43 45 42 38 34 35 35
3 12 16 7 5 4 8 5 8 22 8 17 41 49 45 53 59 66 70 64 55 53 47 44 36 26 7 9 18 15 17 18 19 21 23 21 25 32 33 35 42 44 44 47 50 55 47 44 41
12 12 12 13 22 12 9 12 12 43 35 24 26 57 55 53 55 71 69 67 63 54 50 44 30 17 4 11 10 8 10 15 20 25 29 31 31 28 31 38 38 39 51 50 52 51 46 45 45
15 1 7 17 24 9 12 8 14 37 44 44 43 33 52 51 33 59 72 69 63 58 56 46 26 11 8 14 14 10 11 11 14 18 22 26 29 35 39 35 37 44 42 47 51 54 52 48 46
3 3 5 6 14 16 13 13 16 59 53 44 46 37 36 49 57 49 65 66 65 60 51 37 24 15 6 5 3 11 15 12 13 19 27 30 31 29 30 37 39 37 41 40 44 47 51 53 48
5 6 1 4 1 2 8 7 19 27 49 49 56 56 39 32 33 43 49 50 40 35 28 22 15 10 10 4 4 10 10 16 13 20 28 34 38 39 33 24 23 34 36 29 38 46 46 47 55
8 6 6 7 7 4 8 10 11 22 28 42 50 59 55 41 28 20 38 30 31 27 21 10 4 4 2 5 17 18 18 19 15 25 36 31 31 35 41 39 28 22 28 30 27 34 41 45 31
4 6 5 9 8 5 7 7 7 6 26 40 57 62 63 54 39 26 22 18 19 16 14 12 10 4 4 12 23 29 25 27 29 35 35 32 34 38 39 40 39 33 25 27 28 32 41 48 47
4 7 4 4 7 2 8 8 4 2 11 24 44 56 56 58 47 33 24 4 9 12 18 15 11 6 6 13 20 48 45 45 48 42 41 38 36 42 48 46 41 37 35 33 31 37 37 42 48
6 6 7 2 7 5 10 7 8 8 11 13 25 35 39 41 44 41 32 26 23 14 12 18 14 13 17 19 37 54 71 74 61 58 46 47 44 49 56 52 49 44 36 34 38 36 40 42 48
10 7 12 9 7 6 6 7 8 3 4 6 10 19 22 26 24 19 16 12 14 23 19 18 26 32 41 48 52 60 75 79 71 56 47 43 50 54 53 56 51 48 45 38 36 44 41 43 50
18 13 9 11 10 8 8 4 11 9 5 4 7 17 17 17 20 20 23 20 15 19 25 38 49 52 59 57 64 62 63 77 72 59 51 43 50 54 54 57 53 55 58 53 42 42 51 47 47
8 9 9 6 4 11 13 10 2 6 18 11 11 13 19 19 19 23 22 25 25 26 31 35 38 41 36 46 63 64 70 66 60 52 46 46 50 53 54 53 58 61 67 67 56 47 46 55 51
11 8 4 4 4 4 7 5 8 4 9 20 13 18 26 29 24 30 35 33 32 35 34 38 40 46 47 48 49 54 53 53 55 49 50 50 48 46 48 54 63 70 73 77 62 56 53 51 56
11 5 9 8 6 8 9 10 6 13 20 14 20 21 29 28 29 31 39 46 48 52 52 52 54 58 59 62 62 50 46 48 51 55 53 46 46 50 55 62 68 76 83 83 67 60 57 55 54
10 8 9 5 8 6 8 10 4 2 6 13 20 35 43 45 49 58 62 58 57 54 52 65 79 71 61 62 57 50 47 43 44 46 48 52 58 63 71 76 83 86 91 91 73 61 59 59 57
10 1 7 7 12 7 5 15 7 5 7 18 27 37 43 51 59 65 71 58 49 48 66 87 98 79 73 81 82 76 71 68 71 73 73 75 79 83 88 89 91 93 98 92 71 61 58 59 60
Wind_Direction_850mb
353 348 338 299 60 64 15 42 33 150 187 206 180 117 185 109 150 160 128 117 169 186 175 160 155 170 177 169 153 163 169 172 170 167 166 162 158 153 146 140 136 132 124 117 113 110 107 101 93
347 337 341 38 74 71 345 330 180 239 203 148 138 144 344 62 28 78 147 118 143 174 166 166 173 188 190 177 163 161 168 170 167 169 170 169 168 163 157 152 149 147 137 127 123 123 123 114 100
354 353 42 86 103 110 133 239 184 201 132 112 108 107 88 90 91 78 51 209 167 172 169 162 174 195 187 179 169 163 168 173 173 175 177 181 183 183 178 173 168 165 162 151 144 140 141 130 117
357 31 60 77 125 306 135 179 188 163 225 245 206 85 82 136 138 108 93 132 166 181 169 159 155 175 180 180 173 168 168 176 183 185 188 193 195 198 200 197 196 193 190 186 191 186 187 187 150
9 50 57 60 4 207 119 172 172 186 204 147 162 94 80 139 158 146 122 123 129 195 180 164 168 167 176 181 181 176 171 175 185 197 197 203 205 208 214 217 217 216 215 221 230 241 235 235 243
40 64 52 64 277 276 341 163 169 153 127 111 102 111 158 176 153 154 166 148 151 177 179 180 177 162 156 175 188 195 192 191 195 201 206 213 216 218 224 230 236 234 236 242 248 259 262 250 251
91 75 164 238 343 169 178 132 150 138 147 133 134 101 160 178 159 134 141 169 174 178 179 190 181 160 155 154 168 194 217 237 245 239 236 236 239 240 240 243 250 253 253 256 260 263 269 267 253
22 87 28 346 349 46 99 208 112 142 147 138 155 147 169 189 171 144 170 206 188 164 178 195 183 168 153 145 159 186 201 218 236 258 268 265 262 262 264 263 263 265 267 268 270 269 268 267 265
167 57 20 340 56 289 10 141 108 118 130 89 68 134 140 154 164 159 149 166 193 199 175 183 183 177 171 166 170 190 236 249 240 240 249 260 270 271 272 275 275 274 274 274 274 275 275 274 268
98 95 202 223 164 128 44 84 50 107 127 113 102 121 140 153 169 168 166 166 159 170 175 175 178 189 185 184 184 196 207 255 251 258 264 270 276 277 276 278 279 277 274 272 272 273 275 275 275
144 173 185 200 136 166 136 57 77 132 317 162 133 137 149 152 161 167 160 157 174 175 176 174 191 191 191 208 234 257 295 288 261 254 260 271 277 280 278 277 281 287 288 288 282 284 280 284 281
72 101 156 164 183 282 95 97 82 69 202 166 150 145 149 159 162 164 169 168 175 173 167 164 166 187 218 301 323 304 287 282 289 265 266 265 263 276 279 277 278 277 278 281 279 287 282 288 299
66 349 95 183 178 129 102 54 104 128 161 169 166 154 157 164 167 166 166 168 172 175 172 171 175 188 208 265 288 317 292 280 280 278 277 262 261 268 266 270 271 275 277 276 278 281 284 285 290
305 279 348 153 275 260 126 58 355 144 171 172 179 187 172 174 176 176 178 177 179 185 191 191 198 210 226 249 305 316 285 279 282 280 281 276 273 271 265 261 261 269 275 277 274 271 280 286 282
337 13 359 35 329 201 141 9 252 45 63 232 229 213 207 183 194 201 191 192 194 197 206 205 207 215 207 330 331 302 281 289 301 303 303 300 286 281 283 275 266 260 260 273 275 277 275 282 282
30 50 15 315 357 10 114 250 1 20 7 333 313 224 212 212 210 198 202 200 198 212 222 220 216 189 270 343 355 345 340 335 333 323 319 316 312 309 296 285 281 279 266 264 271 271 269 274 283
10 44 358 333 17 352 55 341 341 4 2 350 339 263 232 227 219 206 198 200 207 211 213 205 198 236 321 18 16 13 7 358 347 335 329 327 323 311 305 307 298 285 285 269 269 270 267 269 273
256 23 342 347 329 16 26 348 319 25 30 12 360 329 289 268 255 234 207 205 205 200 203 210 210 207 160 121 37 343 341 340 331 329 327 328 328 327 318 301 299 298 289 286 275 273 275 270 275
107 91 102 253 304 147 43 295 15 33 32 22 19 15 344 300 283 231 197 188 178 171 179 196 206 171 157 117 12 13 20 357 350 354 337 322 319 317 325 325 307 293 294 288 276 275 275 286 266
72 93 343 297 323 96 8 57 97 25 33 37 31 35 45 57 81 148 178 167 167 179 181 176 136 139 98 352 343 349 349 338 346 343 346 330 318 315 322 321 320 306 289 285 279 268 276 277 263
95 116 230 225 328 3 44 30 36 21 32 39 50 58 53 56 70 88 139 183 208 204 195 205 189 199 335 322 328 357 317 328 310 322 332 335 340 337 327 318 314 309 299 284 273 268 266 274 277
38 328 270 248 73 293 42 265 298 332 4 40 43 54 63 63 54 55 49 3 304 264 237 216 228 241 273 307 327 346 325 316 315 315 322 322 327 339 339 326 319 307 298 291 279 265 258 266 271
258 0 334 16 97 89 348 76 249 2 10 6 39 50 55 58 63 65 52 26 12 346 299 291 280 271 274 300 336 334 321 314 309 307 311 314 320 329 333 328 323 320 306 289 277 274 264 257 259
304 341 39 48 72 46 274 102 290 306 358 348 67 63 60 56 50 45 39 39 4 331 307 291 301 288 297 296 303 301 308 303 293 294 297 303 313 319 322 329 326 326 322 305 282 271 269 268 264
37 46 354 6 10 224 263 335 248 356 47 20 88 54 51 49 45 32 16 4 343 332 313 301 295 280 279 288 292 288 292 283 280 281 287 296 303 308 313 320 325 325 326 318 297 275 267 268 269
14 98 134 295 230 252 316 251 92 78 41 12 38 44 28 14 15 20 12 5 4 355 349 321 311 321 311 294 281 277 272 271 278 266 278 285 290 298 306 313 314 315 323 318 303 285 271 267 265
324 26 222 147 342 39 272 102 275 4 13 15 343 25 16 12 6 3 348 346 348 346 343 341 332 324 318 302 291 289 282 271 267 267 270 273 276 283 292 300 307 308 314 318 304 289 276 269 266
90 270 22 11 353 307 292 290 257 345 355 344 11 25 7 359 351 343 331 324 319 319 321 321 329 327 317 307 303 292 280 267 259 260 264 263 270 280 287 293 297 300 307 311 301 289 277 271 264
4 20 38 113 151 224 297 257 203 275 358 347 352 342 335 333 333 324 321 315 309 307 311 319 320 317 307 300 287 274 269 265 264 266 272 279 282 285 288 292 296 299 301 303 296 284 276 267 263
136 230 116 114 279 238 221 276 154 144 6 342 327 328 320 317 319 316 318 312 310 303 308 311 308 303 291 292 285 281 280 279 280 281 284 286 287 289 291 293 294 295 294 295 287 281 273 264 261